Back to catalog

METEOR 2-5 DEB

AlivePO
NORAD 38280·DEBRIS·🇷🇺 Russia

Launched Oct 31, 1979 from Plesetsk Cosmodrome

Loading…

Next Passes (next 24 hours)

TLE

FreshSource: Space-Track

Epoch: Sep 12, 2026, 01:07 UTC

1 38280U 79095CA  26255.04654141  .00001257  00000-0  33500-3 0  9995
2 38280  81.1884   8.8529 0008735 124.6949 235.5067 14.47977709820073

Track METEOR 2-5 DEB in real time with AllMySat

Download on the App Store